www.pogodaiklimat.ru

ПОГОДА в Холланде, MI

  • Прогноз погоды в Холланде
  • Монитор погоды в Холланде
  • Климат в Холланде

АРХИВ ПОГОДЫ в Холланде

Время (UTC), дата Ветер
(напр.,м/с)
 
Видим.   Явления Облачность Т
(С)
Тd
(С)
f
(%)
Тe
(С)
Тes
(С)
Комфортность

P
(гПа)

Po
(гПа)
Тmin
(С)
Tmax
(С)
R
(мм)
SD
(см)
09:53 18.06   16 км    10/10 480 м  +16.1  +14.4  90  +16  +16    1014.8  989.9         
10:53 18.06 С  16 км    10/10 480 м  +17.2  +14.4  84  +18  +18    1015.0  990.2  +13.9  +17.2     
11:48 18.06   16 км    10/10 510 м  +18.0  +15.0  83  +18  +18      990.2         
11:53 18.06   16 км    10/10 540 м  +18.9  +15.0  78  +20  +20    1014.9  990.2         
12:53 18.06   16 км    10/10 480 м  +20.0  +15.6  76  +22  +22  комфорт  1014.8  989.9         
13:07 18.06   16 км    10/10 540 м  +20.6  +16.1  75  +23  +23  комфорт    989.9         
13:26 18.06 СЗ  14 км    10/10 510 м  +21.1  +15.6  71  +24  +24  комфорт    989.9         
13:53 18.06   16 км    8/8 570 м  +21.1  +16.1  73  +24  +27  комфорт  1014.6  989.9         
14:53 18.06   16 км    8/8 1050 м  +22.2  +16.1  68  +26  +30  душно  1014.6  989.9         
15:53 18.06   16 км    8/8 1200 м  +22.8  +15.6  64  +27  +32  душно  1014.4  989.5         
16:34 18.06 З  6
{9} 
16 км    8/8 870 м  +23.3  +16.7  66  +28  +29  душно    989.5         
16:42 18.06 З  4
{9} 
16 км    8/8 900 м  +21.7  +15.6  68  +25  +27  комфорт    989.5         
16:53 18.06 З  16 км    2/2 900 м  +22.2  +16.1  68  +26  +34  душно  1014.1  989.2  +16.7  +24.4     
17:53 18.06 З  16 км    ясно  +23.3  +16.1  64  +28  +41  душно  1013.7  988.9         
18:53 18.06 СЗ  16 км    ясно  +22.8  +15.6  64  +27  +39  душно  1013.3  988.6         
19:53 18.06 СЗ  16 км    ясно  +22.2  +15.6  66  +26  +37  душно  1012.4  987.9         
20:53 18.06 З  16 км    ясно  +23.3  +16.1  64  +28  +35  душно  1012.0  987.2         
21:53 18.06 СЗ  16 км    ясно  +22.2  +16.1  68  +26  +31  душно  1011.6  986.9         
22:53 18.06 З  16 км    ясно  +21.1  +15.6  71  +24  +27  комфорт  1011.7  986.9  +21.1  +23.9     
23:53 18.06 З  16 км    ясно  +18.9  +15.0  78  +21  +22  комфорт  1011.6  986.9         
00:53 19.06   16 км    ясно  +16.7  +15.0  90  +17  +17    1011.4  986.6         
01:53 19.06   16 км    ясно  +16.1  +14.4  90  +16  +16    1011.3  986.6         
02:53 19.06   14 км    ясно  +15.0  +13.9  93  +15  +15    1011.6  986.9         
03:53 19.06   16 км    ясно  +15.0  +13.9  93  +15  +15    1011.5  986.6         
04:53 19.06   13 км    ясно  +15.6  +14.4  93  +15  +15    1011.0  986.2  +14.4  +21.1     
05:53 19.06   8 км  дымка  ясно  +14.4  +13.3  93  +14  +14    1010.6  985.9         
06:06 19.06   3 км  дымка  ясно  +14.4  +13.9  97  +14  +14      985.9         
06:13 19.06   2 км  дымка  ясно  +14.4  +13.3  93  +14  +14      985.6         
06:18 19.06   5 км  дымка  ясно  +14.4  +13.3  93  +14  +14      985.6         
06:53 19.06   6 км  дымка  8/0 3600 м
[средняя] 
+13.9  +12.8  93  +13  +13    1009.9  985.3         
07:31 19.06   3 км  дымка  10/0 2850 м
[средняя] 
+13.9  +13.3  96  +13  +13      984.9         
07:33 19.06   1 км  дымка  10/0 3000 м
[средняя] 
+13.9  +13.3  96  +13  +13      984.9         
07:43 19.06   2 км  дымка  10/0 2850 м
[средняя] 
+13.9  +13.3  96  +13  +13      984.9         
07:45 19.06   5 км  дымка  10/0 2850 м
[средняя] 
+13.9  +13.3  96  +13  +13      984.6         
07:53 19.06   10 км  дымка  10/0 2850 м
[средняя] 
+14.4  +13.3  93  +14  +14    1009.4  984.6         
08:53 19.06   11 км    10/0 2550 м
[средняя] 
+15.6  +14.4  93  +15  +15    1009.5  984.9         
09:53 19.06   8 км  дымка  2/0 3000 м
[средняя] 
+15.6  +14.4  93  +15  +15    1009.7  984.9         
10:53 19.06 С  8 км  дымка  10/0 2550 м
[средняя] 
+16.7  +15.0  90  +17  +17    1009.6  984.9  +13.9  +16.7     
11:53 19.06 СВ  14 км    8/0 2400 м
[средняя] 
+18.9  +15.6  81  +20  +21    1009.5  984.9         
12:53 19.06 СВ  16 км    2/0 3600 м
[средняя] 
+20.0  +15.0  73  +23  +27  комфорт  1008.9  984.3         
13:53 19.06 СВ  16 км    10/0 3000 м
[средняя] 
+21.1  +14.4  66  +24  +27  комфорт  1009.0  984.3         
14:53 19.06 С  16 км    10/0 2250 м
[средняя] 
+22.2  +15.0  64  +26  +29  душно  1008.7  984.3         
15:53 19.06 СВ  16 км    8/0 3000 м
[средняя] 
+23.3  +15.0  60  +27  +33  душно  1008.5  983.9         
16:53 19.06 С  16 км    ясно  +24.4  +15.0  56  +27  +38  жарко  1007.8  983.3  +16.7  +24.4     
17:53 19.06 С  16 км    ясно  +25.0  +15.6  56  +28  +43  жарко  1006.9  982.6         
18:53 19.06 СЗ  16 км    ясно  +25.0  +15.0  54  +28  +41  жарко  1006.5  981.9         
19:53 19.06 СВ  16 км    ясно  +24.4  +16.1  60  +28  +42  душно  1006.1  981.6         
20:53 19.06 СЗ  16 км    ясно  +22.8  +17.2  71  +28  +40  душно  1005.6  981.3         

 

Местоположение метеостанции Tulip City Airport: широта 42.7461 долгота -86.0967 высота над уровнем моря 209 м.

В архиве по умолчанию представлена погода в Холланде за последние 1-2 суток. Обновление информации о фактической погоде в базе происходит ежечасно! Архивные данные за месяц целиком и за предыдущие месяцы Вы можете получить, выбрав интересующий диапазон дат из раскрывающегося списка и нажав кнопку "Ввод!".

Внимание! Архив погоды МЕТАР в базе сайта хранится не более 60 дней. Нет смысла пытаться выбрать более раннюю дату.

Внимание! Время в таблицах - всемирное. Для получения местного времени необходимо прибавить поправку, которая в Холланде равна -5 ч.

Ветер - указаны скорость ветра в м/с и направление, откуда дует ветер: С - северный, СВ - северо-восточный, В - восточный, ЮВ - юго-восточный, Ю - южный, ЮЗ - юго-западный, З - западный, СЗ - северо-западный.
Видимость - горизонтальная дальность видимости в метрах или километрах. При видимости от 1 до 10 км при отсутствии осадков обычно наблюдается дымка, при ухудшении видимости до 1 км и менее - туман. В сухую погоду видимость может ухудшаться дымом, пылью или мглою.
Атмосферные явления - указаны явления, наблюдавшиеся в указанный момент времени.
Облачность - указаны через наклонную черту верхняя и нижняя облачность в баллах и высота нижней границы облаков в метрах. Внимание: облачность, как и прочие метеорологические величины в США измеряются автоматическими метеостанциями. Указанные значения в баллах носят условный характер и показывают процент времени, в течение которого, в среднем, лазерный луч высотомера отражался от облаков обратно.
T - Температура воздуха - температура, измеренная на высоте 2 м над землей.
Td - Температура точки росы - температура, при понижении до которой содержащийся в воздухе водяной пар достигнет насыщения.
f - Относительная влажность воздуха - влажноcть воздуха, измеренная на высоте 2 м над землей.
Te - Эффективная температура - температура, которую ощущает одетый по сезону человек в тени. Характеристика душности погоды. При расчете учитывается влияние влажности воздуха и скорости ветра на теплоощущения человека.
Tes - Эффективная температура на солнце - температура, которую ощущает человек, с поправкой на солнечный нагрев. Характеристика знойности погоды. Зависит от высоты солнца над горизонтом, облачности и скорости ветра. Ночью, в пасмурную погоду, а также при ветре 12 м/с и более поправка равна нулю.
P - Атмосферное давление - приведенное к уровню моря атмосферное давление.
Po - Атмосферное давление - измеренное на уровне метеостанции атмосферное давление.
Tmin - Минимальная температура - минимум температуры воздуха на высоте 2 м над землей.
Tmax - Максимальная температура - максимум температуры воздуха на высоте 2 м над землей.
R - Количество осадков - Количество выпавших осадков за 3 или 6 часов, мм.
SD - Снежный покров - Высота снежного покрова, см.